Regional Weather Roundup
Issued by NWS

Home | Current Version | Previous Version | Text Only | Print | Product List | Glossary On
Versions: 1 2 3 4 5 6 7 8 9 10 11 12 13 14 15 16 17 18 19 20 21 22 23 24 25 26 27 28 29 30 31 32 33 34 35 36 37 38 39 40 41 42 43 44 45 46 47 48 49 50
000
ASUS42 KFFC 281003
RWRGA
WEATHER ROUNDUP FOR GEORGIA
NATIONAL WEATHER SERVICE PEACHTREE CITY GA
600 AM EDT THU JUL 28 2016

NOTE: "FAIR" INDICATES FEW OR NO CLOUDS BELOW 12,000 FEET WITH NO
SIGNIFICANT WEATHER AND/OR OBSTRUCTIONS TO VISIBILITY.

* = USE WITH CAUTION. THE STATIONS MARKED WITH AN ASTERISK MAY NOT
REPORT WEATHER SUCH AS PRECIPITATION, FOG, OR THUNDER AND ARE NOT
QUALITY CONTROLLED BY NWS.

THE REMARK "TC" DENOTES TEMPERATURE READING IN DEGREES CELSIUS.

GAZ001>058-281100-
NORTH GEORGIA

CITY           SKY/WX    TMP DP  RH WIND       PRES   REMARKS
ATLANTA        CLEAR     75  70  84 SW9       30.03S
ATHENS         CLEAR     74  69  85 SW3       30.02S
CHAMBLEE       CLEAR     74  68  81 SW9       30.03S
PEACHTREE CITY CLEAR     73  69  87 CALM      30.05S
ROME           CLOUDY    75  69  81 SW5       30.00S
WEST ATLANTA   CLEAR     73  68  84 SW7       30.02S
GAINESVILLE    CLEAR     76  67  73 W8        30.05S
CARTERSVILLE   MOCLDY    74  69  85 CALM      30.02S


CITY           SKY/WX    TMP DP  RH WIND       PRES   REMARKS
DALTON*        MOCLDY    73  70  88 SE3       30.00S
MARIETTA       CLEAR     73  69  85 SW7       30.03R
CANTON*        CLEAR     72  64  78 CALM      30.04S
BLAIRSVILLE*     N/A    N/A N/A N/A MISG      30.06S
$$

GAZ059>098-102>109-281100-
CENTRAL GEORGIA

CITY           SKY/WX    TMP DP  RH WIND       PRES   REMARKS
AUGUSTA-BUSH   CLEAR     78  71  79 SW3       29.99S
AUGUSTA-DANIEL CLEAR     82  69  64 VRB5      30.01S
COLUMBUS       CLEAR     74  70  87 SW3       30.05R
MACON          CLEAR     73  70  90 W5        30.04R
ROBINS AFB     CLEAR     74  72  91 SE3       30.03R


CITY           SKY/WX    TMP DP  RH WIND       PRES   REMARKS
LAGRANGE*      CLEAR     71  71 100 S3        30.05S
MILLEDGEVILLE* CLEAR     73  73 100 CALM      30.03R
$$

GAZ099>101-110>166-281100-
SOUTH GEORGIA

CITY           SKY/WX    TMP DP  RH WIND       PRES   REMARKS
SAVANNAH       CLEAR     78  71  79 W7        30.02S
VALDOSTA       CLEAR     75  74  96 CALM      30.05S
ALMA           CLEAR     75  73  93 CALM      30.04S
ST SIMONS      CLEAR     80  75  84 SW7       30.04R
ALBANY         CLEAR     75  72  90 W3        30.06F
HUNTER AFB     CLEAR     78  75  88 SW7       30.00S
MOODY AFB      CLEAR     77  73  87 W6        30.05R
BRUNSWICK      CLEAR     79  77  94 W5        30.05R


CITY           SKY/WX    TMP DP  RH WIND       PRES   REMARKS
BAINBRIDGE*    CLEAR     73  72  94 CALM      30.05S
MOULTRIE*      CLEAR     75  72  88 CALM      30.07R FOG
VIDALIA*       CLEAR     75  70  83 CALM      30.04S
WAYCROSS*      CLEAR     78  77  97 CALM      30.05R
DOUGLAS*       CLEAR     77  72  83 CALM      30.06S
$$



USA.gov is the U.S. government's official web portal to all federal, state and local government web resources and services.